Regional Weather Roundup
Issued by NWS Upton, NY

Current Version | Previous Version | Text Only | Print | Product List | Glossary On
Versions: 1 2 3 4 5 6 7 8 9 10 11 12 13 14 15 16 17 18 19 20 21 22 23 24 25 26 27 28 29 30 31 32 33 34 35 36 37 38 39 40 41 42 43 44 45 46 47 48 49 50
000 ASUS41 KOKX 251709 RWROKX REGIONAL WEATHER ROUNDUP NATIONAL WEATHER SERVICE NEW YORK NY 100 PM EDT TUE APR 25 2017 NOTE: "FAIR" INDICATES FEW OR NO CLOUDS BELOW 12,000 FEET WITH NO SIGNIFICANT WEATHER AND/OR OBSTRUCTIONS TO VISIBILITY. NYZ071-072-176-178-NJZ106-104-251800- NEW YORK CITY METRO AREA CITY SKY/WX TMP DP RH WIND PRES REMARKS Central Park CLOUDY 54 51 90 E12G20 30.08F Wall St Helipt CLOUDY 55 51 86 NE18G25 30.05F Bronx Bot Gard N/A 52 48 87 E9 30.09R LaGuardia APRT CLOUDY 57 51 80 E24G30 30.06F Kennedy INTL LGT RAIN 56 54 93 NE16 30.05F Breezy Point N/A 54 N/A N/A NE15G21 N/A Newark/Liberty CLOUDY 55 52 89 NE17G24 30.05F Teterboro CLOUDY 56 51 84 E15G30 30.05F $$ NYZ177-179-078>081-251800- LONG ISLAND NEW YORK CITY SKY/WX TMP DP RH WIND PRES REMARKS Jones Beach N/A 54 N/A N/A E23G29 N/A Matinecock PT N/A 52 N/A N/A E24 N/A Farmingdale LGT RAIN 54 53 97 NE10G16 30.06F MacArthur/ISP LGT RAIN 54 54 100 E17G23 30.06F FOG Shirley LGT RAIN 53 53 100 VRB3 30.07F FOG Mt Sinai Harb N/A N/A N/A N/A E9G15 N/A Westhampton CLOUDY 54 51 90 E16G23 30.09F FOG East Hampton LGT RAIN 50 49 96 NE17G26 30.09F Montauk N/A 50 49 96 E12G20 30.12F $$ NYZ052-065-067-251800- HUDSON VALLEY CITY SKY/WX TMP DP RH WIND PRES REMARKS White Plains CLOUDY 55 51 86 E14G20 30.06F Larchmont Harb N/A 50 N/A N/A NE22 N/A Croton O-T Hud N/A 57 N/A N/A E8G14 N/A Newburgh LGT RAIN 54 52 94 E10 30.11F FOG Montgomery LGT RAIN 53 49 86 NE13 30.09F FOG Poughkeepsie LGT RAIN 54 50 86 NE5 30.10F FOG Albany CLOUDY 50 45 83 N7 30.18F $$ NJZ001-105-106-008-010-013-015-019>022-104-251800- NEW JERSEY CITY SKY/WX TMP DP RH WIND PRES REMARKS Newark/Liberty CLOUDY 55 52 89 NE17G24 30.05F Teterboro CLOUDY 56 51 84 E15G30 30.05F Caldwell CLOUDY 55 52 89 E9 30.06F Somerville LGT RAIN 56 52 86 NE12G24 30.00F FOG Linden CLOUDY 55 51 86 E17G23 30.03F Sussex LGT RAIN 51 49 92 N14 30.08F Andover NOT AVBL Trenton CLOUDY 55 54 96 E18G28 29.97F FOG Millville LGT RAIN 57 57 100 NE14 29.86F FOG Atlantic City HVY RAIN 57 54 89 NE22G30 29.88F FOG Wrightstown LGT RAIN 54 53 96 NE18G25 29.94F FOG Toms River LGT RAIN 52 51 97 NE18G26 29.97F FOG Belmar LGT RAIN 50 49 96 NE21G29 30.00F VSB 1/2 $$ PAZ047>061-062-071-251800- EASTERN PENNSYLVANIA CITY SKY/WX TMP DP RH WIND PRES REMARKS Philadelphia NOT AVBL Allentown CLOUDY 57 50 77 E15 30.00F Scranton CLOUDY 55 48 77 NE13G21 30.02F $$ CTZ002-004>006-009-010-012-RIZ004-006-007-MAZ004-011-015-251800- SOUTHERN NEW ENGLAND IN CT CITY SKY/WX TMP DP RH WIND PRES REMARKS Bradley INTL CLOUDY 54 50 86 N14 30.17F Hartford LGT RAIN 56 49 77 NE10G20 30.16F Danbury CLOUDY 54 52 93 NE12 30.11F Wtrbury/Oxford CLOUDY 54 46 76 E14G23 30.12F FOG Bridgeport LGT RAIN 58 52 80 NE15 30.08F Meriden LGT RAIN 56 51 84 NE8 30.13F New Haven LGT RAIN 57 52 83 NE15 30.09F Chester LGT RAIN 55 54 94 NE10G17 30.11F Groton CLOUDY 57 53 86 NE20G26 30.10F Wilimantic CLOUDY 57 49 74 NE9 30.16F IN RI CITY SKY/WX TMP DP RH WIND PRES REMARKS Providence RAIN 52 51 97 NE18 30.19F FOG Block Island LGT RAIN 50 49 96 NE17G23 30.14S FOG Westerly LGT RAIN 54 52 93 NE13G22 30.13F IN MA CITY SKY/WX TMP DP RH WIND PRES REMARKS Boston LGT RAIN 48 43 82 NE20G25 30.26F Worcester CLOUDY 47 41 80 NE17G24 30.21F Westfield CLOUDY 52 50 93 N13G20 30.19F Provincetown LGT RAIN 46 45 96 NE16G23 30.24F FOG Nantucket CLOUDY 51 49 92 E23G33 30.15F FOG $$ ANZ330-335-338-340-345-350-353-355-251800- COASTAL MARINE OBSERVATIONS STATION/POSITION TIME SKY/WX TEMP WIND PRES VSBY WAVE AIR SEA DIR/SP/G HT/PER (UTC) (F) (DEG/KT/KT) (MB) (MI) (FT/S) NY HARB ENTRANCE 1550 49 49 60/ 27/ 31 1017.0 7/ 7 20 S FIRE ISLAND 1650 48 47 60/ 19/ 23 1015.5 7/ 6 GREAT SOUTH BAY 1600 54 55 60/ 16/ 19 N/A 23 SSW MONTAUK P 1550 48 46 1019.2 6/ 6 15 E BARNEGAT LI 1630 50 N/A 8/ 6 HUDSON CANYON 1550 51 47 80/ 16/ 19 1015.2 7/ 7 KINGS POINT 1648 53 47 100/ 8/ 19 1018.0 EXECUTION ROCKS NOT AVBL CENTRAL LI SOUND 1630 50 60/ 16/ 19 N/A 3/ 4 EASTERN LI SOUND NOT AVBL ROBBINS REEF 1648 54 50/ 19/ 20 1017.3 $$ >>>>>>>>>>>>>>>>>>>>>>>>>>>> KEY <<<<<<<<<<<<<<<<<<<<<<<<<<< > < > SKY/WX - Sky Condition/Present Weather < > TMP - Temperature in Fahrenheit < > DP - Dew Point in Fahrenheit < > RH - Relative Humidity in Percent < > WIND - Direction (from) and Speed in MPH < > PRES - Mean Sea Level Pressure (inches of Hg) < > WCI - Wind Chill Index < > VSB - VISIBILITY IN MILES < > HX - HEAT INDEX < > TC - TEMPERATURE IN CELSIUS < > VRB - VARIABLE WIND DIRECTION < > < >>>>>>>>>>>>>>>>>>>>>>>>>>>> KEY <<<<<<<<<<<<<<<<<<<<<<<<<<<

USA.gov is the U.S. government's official web portal to all federal, state and local government web resources and services.